Regional Weather Roundup
Issued by NWS

Home | Current Version | Previous Version | Graphics & Text | Print | Product List | Glossary On
Versions: 1 2 3 4 5 6 7 8 9 10 11 12 13 14 15 16 17 18 19 20 21 22 23 24 25 26 27 28 29 30 31 32 33 34 35 36 37 38 39 40 41 42 43 44 45 46 47 48 49 50
000
ASUS45 KABQ 011510
RWRNM
WEATHER ROUNDUP FOR NEW MEXICO
NATIONAL WEATHER SERVICE ALBUQUERQUE NM
800 AM MST SUN FEB 01 2015

NOTE: "FAIR" MEANS FEW OR NO CLOUDS BELOW 12,000 FEET AGL WITH NO
       SIGNIFICANT WEATHER OR OBSTRUCTIONS TO VISION.

      THIS PRODUCT IS RELEASED AS TWO VERSIONS.  ONE VERSION NEAR
      THE TOP OF THE HOUR CONTAINING PRELIMINARY DATA FROM ALBUQUERQUE
      AND OTHER STATIONS.  A FINAL VERSION WITH ADDITIONAL DATA IS
      ISSUED ABOUT 10 MINUTES AFTER THE HOUR.

NMZ501-503-504-510>518-011600-
NORTHWEST PLATEAU/NORTHCENTRAL MOUNTAINS

CITY           SKY/WX    TMP DP  RH WIND       PRES   REMARKS
FARMINGTON     FOG       30  29  96 CALM      30.10R VSB 1/4
LOS ALAMOS     PTCLDY    28  28 100 CALM      30.08R
SANTA FE       FOG       27  25  92 NW7       30.08R VSB 1/4 WCI  19
TAOS           CLOUDY    21  18  86 CALM      30.09R
ANGEL FIRE     FAIR      14  13  93 CALM        N/A

$$
NMZ402-403-502-505>509-011600-
WESTCENTRAL MOUNTAINS/SOUTHWEST MOUNTAINS

CITY           SKY/WX    TMP DP  RH WIND       PRES   REMARKS
GALLUP         HAZE      25  20  81 CALM      30.13R VSB 1/4
GRANTS         CLEAR     28  24  87 NW9       30.13R WCI  19
SILVER CITY    CLEAR     39  37  93 NW10      30.07R WCI  32

$$
NMZ407-409-411-412-011600-
SOUTHERN DESERTS

CITY           SKY/WX    TMP DP  RH WIND       PRES   REMARKS
LORDSBURG      CLOUDY    41  41 100 W3        30.07R
DEMING         FOG       38  38 100 N3        30.07R VSB 1/4
LAS CRUCES     PTSUNNY   42  42  98 NW7       30.07R
HOLLOMAN AFB   MOSUNNY   41  41 100 N10       30.03R
ALAMOGORDO     SUNNY     41  39  93 NW9       30.04R
T OR C         CLEAR     38  36  92 CALM      30.06R

$$
NMZ519>523-011600-
CENTRAL VALLEYS/CENTRAL HIGHLANDS

CITY           SKY/WX    TMP DP  RH WIND       PRES   REMARKS
ALBUQUERQUE    PTCLDY    34  30  85 W3        30.10R
DOUBLE EAGLE   PTCLDY    32  27  80 N16       30.09R WCI  21
MORIARTY ARPT  FAIR      32  28  86 CALM      30.09R
CLINES CORNERS SUNNY     30  27  88 NW13      30.05R WCI  20
BELEN          FAIR      33  32  98 NW5       30.11R WCI  28
SOCORRO        FAIR      37  34  86 N5        30.09R WCI  34

$$
NMZ524>526-539-540-011600-
SOUTHCENTRAL MOUNTAINS

CITY           SKY/WX    TMP DP  RH WIND       PRES   REMARKS
RUIDOSO        SUNNY     36  30  80 W8        30.08R WCI  29

$$
NMZ527>531-011600-
NORTHEAST HIGHLANDS/NORTHEAST PLAINS

CITY           SKY/WX    TMP DP  RH WIND       PRES   REMARKS
LAS VEGAS      FOG       27  27 100 SW5       30.06R VSB<1/4 WCI  22
RATON          MOCLDY    27  22  81 NE14      30.06R WCI  16
CLAYTON        PTSUNNY   31  24  75 N17G28    30.08R WCI  19

$$
NMZ532>537-011600-
EASTCENTRAL PLAINS

CITY           SKY/WX    TMP DP  RH WIND       PRES   REMARKS
TUCUMCARI      PTSUNNY   36  31  82 NE8       30.10R WCI  30
CANNON AFB     NOT AVBL
CLOVIS AIRPORT MOSUNNY   34  30  86 N17       30.06R WCI  23

$$
NMZ028-029-538-011600-
SOUTHEAST PLAINS

CITY           SKY/WX    TMP DP  RH WIND       PRES   REMARKS
ROSWELL        MOSUNNY   38  35  89 N17       30.06R WCI  28
ARTESIA        CLOUDY    39  39 100 N14       30.07R FOG     WCI  31
CARLSBAD       FOG       40  40 100 N8        30.03R VSB 1/4 WCI  34
HOBBS          MOSUNNY   39  39 100 N17G24    30.04R WCI  30


$$


USA.gov is the U.S. government's official web portal to all federal, state and local government web resources and services.